N7QNM-13 Weather Reports


Display with metric or nautical units.
time (UTC)temp
F
wind
direction
speed
MPH
gust
MPH
rain 1hr
in
rain 24hr
in
rain mn
in
humidity
%
barometer
mb
20260906014059 72 283 3.0 4.0 0.00 0.05 0.05 49 1015.6
20260906013119 72 293 3.0 5.0 0.00 0.05 0.05 49 1015.5
20260906012059 73 286 4.0 5.0 0.00 0.05 0.05 48 1015.5
20260906011059 73 274 4.0 7.0 0.00 0.05 0.05 48 1015.5
20260906010100 73 285 4.0 5.0 0.00 0.05 0.05 48 1015.4
20260906005100 74 279 5.0 8.0 0.00 0.05 0.05 48 1015.4
20260906004100 74 288 6.0 8.0 0.00 0.05 0.05 47 1015.5
20260906003100 74 278 5.0 7.0 0.00 0.05 0.05 47 1015.5
20260906002100 75 301 4.0 5.0 0.00 0.05 0.05 45 1015.5
20260906001102 75 291 5.0 6.0 0.00 0.05 0.05 47 1015.6
20260906000120 75 291 3.0 5.0 0.00 0.05 0.05 46 1015.6
20260905235120 75 287 3.0 4.0 0.00 0.05 0.05 46 1015.6
20260905234100 74 287 4.0 6.0 0.00 0.05 0.05 47 1015.7
20260905233102 73 284 5.0 7.0 0.00 0.05 0.05 51 1015.7
20260905232102 72 284 6.0 9.0 0.00 0.05 0.05 51 1015.9
20260905231121 72 266 5.0 9.0 0.00 0.05 0.05 52 1015.9
20260905225103 72 276 5.0 7.0 0.00 0.05 0.05 51 1016.0
20260905224102 71 290 7.0 10.0 0.00 0.05 0.05 52 1016.0
20260905223101 71 280 6.0 9.0 0.00 0.05 0.05 52 1016.1
20260905222101 71 316 5.0 8.0 0.00 0.05 0.05 53 1016.1
20260905221104 71 305 6.0 9.0 0.00 0.05 0.05 53 1016.2
20260905215102 69 274 5.0 9.0 0.00 0.05 0.05 57 1016.5
20260905214103 69 255 5.0 8.0 0.00 0.05 0.05 57 1016.6
20260905213102 68 0.0 0.0 0.00 0.05 0.05 58 1016.7
20260905212104 67 274 6.0 10.0 0.00 0.05 0.05 59 1016.7
20260905211104 68 296 7.0 10.0 0.00 0.05 0.05 58 1016.8
20260905205103 68 289 7.0 10.0 0.00 0.05 0.05 57 1016.9
20260905204103 68 267 7.0 11.0 0.00 0.05 0.05 59 1016.9
20260905203103 67 271 9.0 11.0 0.00 0.05 0.05 60 1017.0
20260905202124 65 288 8.0 12.0 0.00 0.05 0.05 63 1017.1
20260905201104 65 299 8.0 10.0 0.00 0.05 0.05 65 1017.2
20260905200125 64 288 10.0 13.0 0.00 0.05 0.05 65 1017.3
20260905195105 64 278 9.0 12.0 0.00 0.05 0.05 69 1017.4
20260905194125 63 261 9.0 11.0 0.00 0.05 0.05 69 1017.4
20260905193104 63 259 8.0 10.0 0.00 0.05 0.05 69 1017.4
20260905192103 64 286 8.0 11.0 0.00 0.05 0.05 68 1017.5
20260905191125 63 284 9.0 12.0 0.00 0.05 0.05 69 1017.6
20260905190104 64 274 9.0 12.0 0.00 0.05 0.05 68 1017.6
20260905185106 64 277 11.0 15.0 0.00 0.05 0.05 70 1017.6
20260905184104 63 264 8.0 12.0 0.00 0.05 0.05 72 1017.8
20260905183106 62 279 8.0 11.0 0.00 0.05 0.05 74 1017.9
20260905182104 61 282 8.0 10.0 0.00 0.05 0.05 74 1018.0
20260905181105 61 325 7.0 9.0 0.00 0.05 0.05 74 1018.1
20260905180106 61 277 8.0 10.0 0.00 0.05 0.05 74 1018.1
20260905175106 61 292 8.0 12.0 0.00 0.05 0.05 75 1018.0
20260905174105 61 284 7.0 10.0 0.00 0.05 0.05 75 1018.0
20260905173105 60 256 8.0 12.0 0.00 0.05 0.05 78 1018.1
20260905172107 58 287 8.0 12.0 0.00 0.05 0.05 80 1018.1
20260905171105 58 255 8.0 11.0 0.00 0.05 0.05 81 1018.0
20260905170105 58 267 6.0 9.0 0.00 0.05 0.05 82 1018.0
20260905165107 57 270 5.0 8.0 0.00 0.05 0.05 82 1018.0
20260905164107 57 252 6.0 8.0 0.00 0.05 0.05 82 1018.0
20260905163107 57 269 5.0 9.0 0.00 0.05 0.05 84 1017.9
20260905162105 57 275 5.0 7.0 0.00 0.05 0.05 84 1017.8
20260905161107 57 262 6.0 7.0 0.00 0.05 0.05 85 1017.8
20260905160106 57 273 4.0 6.0 0.00 0.05 0.05 85 1017.9
20260905155108 57 261 5.0 7.0 0.00 0.05 0.05 86 1017.9
20260905154106 57 233 2.0 3.0 0.00 0.05 0.05 87 1017.9
20260905153108 56 266 2.0 4.0 0.00 0.05 0.05 88 1017.8
20260905152107 56 270 3.0 4.0 0.00 0.05 0.05 88 1017.8
20260905151108 56 283 2.0 4.0 0.00 0.05 0.05 89 1017.7
20260905150107 55 259 2.0 3.0 0.00 0.05 0.05 89 1017.6
20260905145127 54 23 0.0 2.0 0.00 0.05 0.05 89 1017.5
20260905144107 54 0.0 0.0 0.00 0.05 0.05 88 1017.4
20260905143127 54 0.0 0.0 0.00 0.05 0.05 88 1017.3
20260905142107 53 0.0 0.0 0.00 0.05 0.05 87 1017.3
20260905141109 54 0.0 0.0 0.00 0.05 0.05 87 1017.1
20260905140127 54 0.0 0.0 0.00 0.05 0.05 87 1017.0
20260905135108 54 203 0.0 1.0 0.00 0.05 0.05 87 1016.9
20260905134107 54 90 1.0 2.0 0.00 0.05 0.05 87 1016.8
20260905133107 54 270 0.0 2.0 0.00 0.05 0.05 87 1016.7
20260905132109 54 270 0.0 2.0 0.00 0.05 0.05 86 1016.6
20260905131107 54 223 2.0 4.0 0.00 0.05 0.05 87 1016.5
20260905130109 54 196 1.0 2.0 0.00 0.05 0.05 86 1016.4
20260905125110 55 266 2.0 3.0 0.00 0.05 0.05 86 1016.4
20260905124109 55 259 3.0 5.0 0.00 0.05 0.05 86 1016.4
20260905123108 55 0.0 0.0 0.00 0.05 0.05 86 1016.4
20260905122130 55 240 2.0 3.0 0.00 0.05 0.05 87 1016.5
20260905121108 55 241 0.0 2.0 0.00 0.05 0.05 87 1016.4
20260905120108 54 219 3.0 4.0 0.00 0.05 0.05 88 1016.4
20260905115109 54 251 3.0 5.0 0.00 0.05 0.05 88 1016.4
20260905114129 54 210 2.0 3.0 0.00 0.05 0.05 88 1016.4
20260905113131 54 0.0 0.0 0.00 0.05 0.05 88 1016.3
20260905112109 54 0.0 0.0 0.00 0.05 0.05 88 1016.2
20260905111109 54 0.0 0.0 0.00 0.05 0.05 88 1016.2
20260905110111 54 0.0 0.0 0.00 0.05 0.05 88 1016.2
20260905105111 54 0.0 0.0 0.00 0.05 0.05 87 1016.2
20260905104131 54 0.0 0.0 0.00 0.05 0.05 87 1016.2
20260905103110 54 0.0 2.0 0.00 0.05 0.05 87 1016.2
20260905102111 54 225 0.0 2.0 0.00 0.05 0.05 87 1016.1
20260905101130 54 248 1.0 2.0 0.01 0.05 0.05 87 1016.1
20260905100110 54 180 0.0 1.0 0.03 0.05 0.05 86 1016.2
20260905095110 54 0.0 0.0 0.05 0.05 0.05 86 1016.1
20260905094132 54 194 1.0 2.0 0.05 0.05 0.05 85 1016.1
20260905093110 54 0.0 0.0 0.05 0.05 0.05 85 1016.1
20260905092152 54 0.0 0.0 0.05 0.05 0.05 85 1016.1
20260905091110 54 68 0.0 1.0 0.04 0.04 0.04 84 1016.1
20260905090111 54 117 2.0 2.0 0.02 0.02 0.02 84 1016.0
20260905085153 54 0.0 0.0 0.00 0.00 0.00 84 1015.9
20260905084111 53 0.0 0.0 0.00 0.00 0.00 84 1015.9
20260905083111 53 262 1.0 2.0 0.00 0.00 0.00 84 1015.8
20260905082213 53 0.0 0.0 0.00 0.00 0.00 83 1015.7
20260905081113 53 0.0 0.0 0.00 0.00 0.00 83 1015.7
20260905080113 53 0.0 0.0 0.00 0.00 0.00 83 1015.7
20260905075113 52 186 0.0 1.0 0.00 0.00 0.00 83 1015.6
20260905074113 52 0.0 0.0 0.00 0.00 0.00 82 1015.4
20260905073112 52 204 1.0 2.0 0.00 0.00 0.00 82 1015.4
20260905072113 52 0.0 0.0 0.00 0.00 0.00 81 1015.4
20260905071112 52 0.0 0.0 0.00 0.00 0.00 80 1015.3
20260905070132 52 0.0 0.0 0.00 0.00 0.00 80 1015.3
20260905065112 52 0.0 0.0 0.00 0.00 0.00 79 1015.2
20260905064112 52 192 0.0 2.0 0.00 0.00 0.00 77 1015.1
20260905063112 53 29 1.0 2.0 0.00 0.00 0.00 76 1014.9
20260905062113 54 0.0 0.0 0.00 0.00 0.00 75 1014.9
20260905061113 54 0.0 0.0 0.00 0.00 0.00 74 1014.8
20260905060112 55 0.0 0.0 0.00 0.00 0.00 72 1014.8
20260905055113 56 7 0.0 2.0 0.00 0.00 0.00 71 1014.8
20260905054113 57 0.0 0.0 0.00 0.00 0.00 70 1014.8
20260905053113 57 0.0 0.0 0.00 0.00 0.00 70 1014.8
20260905052113 58 180 0.0 1.0 0.00 0.00 0.00 69 1014.8
20260905051113 58 308 2.0 3.0 0.00 0.00 0.00 69 1014.8
20260905050114 58 220 2.0 6.0 0.00 0.00 0.00 68 1014.8
20260905045113 58 196 1.0 2.0 0.00 0.00 0.00 67 1014.9
20260905044114 59 254 1.0 2.0 0.00 0.00 0.00 66 1014.9
20260905043114 59 198 1.0 3.0 0.00 0.00 0.00 64 1014.9
20260905042115 60 186 0.0 2.0 0.00 0.00 0.00 64 1014.9
20260905041114 60 256 3.0 6.0 0.00 0.00 0.00 63 1015.0
20260905040114 61 261 2.0 4.0 0.00 0.00 0.00 63 1014.9
20260905035114 61 265 3.0 4.0 0.00 0.00 0.00 62 1014.8
20260905034115 61 258 4.0 7.0 0.00 0.00 0.00 62 1014.8
20260905033136 61 258 4.0 7.0 0.00 0.00 0.00 61 1014.8
20260905032116 61 248 3.0 5.0 0.00 0.00 0.00 61 1014.8
20260905031116 61 244 3.0 5.0 0.00 0.00 0.00 60 1014.7
20260905030115 61 197 2.0 3.0 0.00 0.00 0.00 59 1014.6
20260905025115 62 234 3.0 4.0 0.00 0.00 0.00 57 1014.4
20260905024115 62 264 3.0 5.0 0.00 0.00 0.00 56 1014.3
20260905023116 62 254 4.0 6.0 0.00 0.00 0.00 55 1014.3
20260905022115 62 256 5.0 6.0 0.00 0.00 0.00 57 1014.2
20260905021135 63 254 3.0 5.0 0.00 0.00 0.00 58 1014.1
20260905020117 64 263 4.0 6.0 0.00 0.00 0.00 57 1014.0
20260905015116 65 270 5.0 9.0 0.00 0.00 0.00 57 1013.9